#timestamp,LO_Frequency,Hit,StdDev 
1511470815.2,286046996.6,N
1511470835.0,286046995.3,N
1511470835.9,286046995.3,N
1511470855.8,286046993.5,Y
1511470875.6,286046993.7,P
1511470895.5,286046994.9,N
1511470915.3,286047001.1,N
1511470935.1,286047001.1,N
1511470955.9,286047001.0,N
1511470975.7,286046999.1,N
1511470995.5,286046999.5,N
1511471015.4,286047001.0,N
1511471035.2,286047000.0,N
1511471055.1,286047000.0,N
1511471056.0,286047000.0,N
1511471075.8,286047002.1,N
1511471095.6,286047001.6,N
1511471115.5,286047000.0,N
1511471135.3,286047001.0,N
1511471155.1,286047002.0,N
1511471175.9,286047003.6,N
1511471195.7,286047003.4,N
1511471215.6,286047003.9,N
1511471235.4,286047000.3,N
1511471255.2,286047002.2,N
1511471275.1,286047001.7,N
1511471276.0,286047001.7,N
1511471295.8,286047000.1,N
1511471315.7,286047002.2,N
1511471335.5,286046999.9,N
1511471355.3,286046999.9,N
1511471375.2,286047002.4,N
1511471395.0,286047002.0,N
1511471395.9,286047002.0,N
1511471415.7,286047002.4,N
1511471435.6,286046999.9,N
1511471455.4,286047002.2,N
1511471475.3,286047004.2,Y
1511471495.1,286047002.5,P
1511471515.8,286047004.4,P
1511471535.7,286047004.0,P
1511471555.5,286046998.6,N
1511471575.3,286046999.4,N
1511471595.2,286046999.0,N
1511471615.0,286046998.1,N
1511471615.9,286046998.1,N
1511471635.8,286047000.3,N
1511471655.6,286047004.2,N
1511471675.4,286047002.3,N
1511471695.3,286047002.5,N
1511471715.1,286047002.4,N
1511471735.9,286047001.5,N
1511471755.7,286047000.1,N
1511471775.5,286046998.5,N
1511471795.4,286046998.7,N
1511471815.2,286047002.6,N
1511471835.0,286047001.3,N
1511471835.9,286047001.3,N
1511471855.8,286047004.3,N
1511471875.6,286047002.5,N
1511471895.5,286047001.5,N
1511471915.3,286047002.8,N
1511471935.1,286046997.7,N
1511471955.9,286046999.3,N
1511471975.7,286046996.8,N
1511471995.5,286046998.8,N
1511472045.4,286046997.1,E
1511472055.3,286046999.0,N
1511472075.2,286046997.5,P
1511472095.9,286046997.1,P
1511472115.7,286046996.5,Y
1511472135.6,286047000.2,P
1511472155.4,286047000.6,N
1511472175.3,286047000.0,N
1511472195.1,286047000.4,N
1511472196.0,286047000.4,N
1511472215.8,286047002.2,N
1511472235.7,286047000.3,N
1511472255.5,286046996.6,Y
1511472275.4,286046998.8,P
1511472295.2,286047000.5,N
1511472315.0,286047002.6,P
1511472315.9,286047002.6,N
1511472335.8,286047001.5,N
1511472355.6,286047002.0,N
1511472375.4,286046998.8,N
1511472395.3,286046996.8,N
1511472415.1,286046994.9,N
1511472435.9,286046991.7,Y
1511472455.7,286046993.7,P
1511472475.5,286046991.7,N
1511472495.4,286046993.6,N
1511472515.2,286046996.1,N
1511472535.1,286046993.4,N
1511472536.0,286046993.4,N
1511472555.8,286046994.0,N
1511472575.6,286046990.6,Y
1511472595.5,286046995.0,P
1511472615.3,286046996.7,P
1511472635.1,286046998.9,N
1511472655.9,286046998.7,N
1511472675.7,286046997.7,N
1511472695.6,286046996.6,N
1511472715.4,286046997.0,N
1511472735.2,286046997.3,N
1511472755.1,286046997.6,N
1511472756.0,286046997.6,N
1511472775.8,286046996.6,N
1511472795.6,286046998.6,N
1511472815.5,286046998.3,N
1511472835.3,286046997.7,N
1511472855.2,286046995.7,Y
1511472875.0,286046999.5,P
1511472875.9,286046999.5,N
1511472895.7,286046999.4,N
1511472915.6,286047000.0,N
1511472935.4,286046999.2,N
1511472955.3,286046996.8,Y
1511472975.1,286046999.0,P
1511472976.0,286046999.0,P
1511472995.8,286046995.4,P
1511473015.7,286046994.2,Y
1511473035.5,286046995.8,P
1511473055.4,286046994.5,P
1511473075.2,286046992.9,P
1511473095.0,286046994.6,N
1511473095.9,286046994.6,Y
1511473115.8,286046996.6,P
1511473135.6,286047001.6,N
1511473155.4,286047006.0,N
1511473175.3,286047004.8,N
1511473195.1,286047007.4,N
1511473215.9,286047010.3,N
1511473235.7,286047007.8,N
1511473255.5,286047010.8,N
1511473275.4,286047012.2,N
1511473295.2,286047011.2,N
1511473315.0,286047013.4,N
1511473315.9,286047013.4,N
1511473335.8,286047006.2,N
1511473355.6,286047010.4,N
1511473375.5,286047012.4,N
1511473395.3,286047009.9,N
1511473415.1,286047011.7,N
1511473435.9,286047012.2,N
1511473455.7,286047010.0,N
1511473475.5,286047012.1,N
1511473495.4,286047013.3,N
1511473515.2,286047013.7,N
1511473535.1,286047015.5,Y
1511473536.0,286047015.5,P
1511473555.8,286047004.5,N
1511473575.6,286047004.7,N
1511473595.5,286047005.4,N
1511473615.3,286047000.1,N
1511473635.1,286047004.0,N
1511473655.9,286047006.0,N
1511473675.7,286047003.9,N
1511473695.6,286047000.2,N
1511473715.4,286047002.4,N
1511473735.2,286047002.0,N
1511473755.1,286047002.4,N
1511473756.0,286047002.4,N
1511473775.8,286047002.0,N
1511473795.7,286047001.5,N
1511473815.5,286047003.8,N
1511473835.3,286047005.6,N
1511473855.2,286047005.0,N
1511473875.9,286047004.8,N
1511473895.7,286047004.5,N
1511473915.6,286047003.3,N
1511473935.4,286047003.7,N
1511473955.3,286047001.8,N
1511473975.1,286047001.9,N
1511473976.0,286047001.9,N
1511473995.8,286047004.2,N
1511474015.7,286047005.4,N
1511474035.5,286047005.9,N
1511474055.3,286047005.6,N
1511474075.2,286047007.0,N
1511474095.0,286047009.0,Y
1511474095.9,286047009.0,P
1511474115.8,286047001.4,N
1511474135.6,286047003.6,N
1511474155.4,286047004.0,N
1511474175.3,286047000.3,N
1511474195.1,286047000.9,N
1511474215.8,286047000.2,N
1511474235.7,286047000.5,N
1511474255.5,286047000.2,N
1511474275.4,286047000.1,N
1511474295.2,286047002.2,N
1511474315.0,286047002.5,N
1511474315.9,286047002.5,N
1511474335.8,286047001.3,N
1511474355.6,286047002.7,N
1511474375.4,286047000.2,N
1511474395.3,286047002.4,N
